{"data":{"norad_id":81386,"epoch":"2026-09-11T22:03:43.237152Z","epoch_age_seconds":755863,"freshness":"AGED","line1":"1 81386U          26254.91925043  .00003220  00000+0  10132-2 0  9993","line2":"2 81386  71.0455 122.4106 0086283  10.8864 349.4111 14.39037542663501","mean_motion":14.39037542,"eccentricity":0.0086283,"inclination_deg":71.0455,"raan_deg":122.4106,"arg_perigee_deg":10.8864,"mean_anomaly_deg":349.4111,"bstar":0.0010132,"rev_number":66350,"period_min":100.06688206332,"perigee_km":700.07570249104,"apogee_km":823.28467176241,"semimajor_km":7139.8171871267,"source":"CELESTRAK","updated_at":"2026-09-20T09:00:32.387289Z"}}